User: anonymous   Login
Location: Unspecified
(0.0000°N, 0.0000°E)
Time: 02:49:43
(UTC+00:00)
Language:

DANDE - Orbit

View from above orbital plane
View from above orbital plane
View from above satellite
View from above satellite

Ground track
Ground track

The orbit data is extracted from the following two-line orbital elements,

1 39267U 13055C   17147.58119517 +.00002390 +00000-0 +71545-4 0  9998
2 39267 081.0149 047.2839 0713260 330.4345 025.8203 14.17001190185778
Epoch (UTC): 27 May 2017 13:56:55
Eccentricity: 0.0713260
inclination: 81.0149°
perigee height: 321 km
apogee height: 1350 km
right ascension of ascending node: 47.2839°
argument of perigee: 330.4345°
revolutions per day: 14.17001190
mean anomaly at epoch: 25.8203°
orbit number at epoch: 18577

The dashed part of the orbit path shows where the satellite is in the earth's shadow,  

DLR